[[{"header":{"parameterUnit":"m.s-1","parameterCategory":2,"la1":30.2991,"la2":30.254,"lo1":-89.0895,"lo2":-89.0444,"dy":0.0017,"dx":0.0017,"nx":28,"ny":28,"refTime":"2024-11-27T09:00:00:Z","depth":"0","parameterNumber":2,"parameterNumberName":"U-component_of_CURRENTS"},"data":[0,0,0,0,0,0,0,0,0,0,0,0,0,0,0,0,0,0,0,0,0,0,0,0,0,0,0,0,0,0,0,0,0,0,0,0,0,0,0,0,0,0,0,0,0,0,0,0,0,0,0,0,0,0,0,0,0,0,0.2475,0.2475,0,0.2498,0.2498,0.2499,0.2476,0.2476,0.2475,0.2474,0.2484,0.2485,0.2486,0,0,0,0,0,0,0,0,0,0,0,0,0,0.2456,0.2456,0.2475,0.2475,0.2476,0.2498,0.2498,0.2499,0.2477,0.2476,0.2474,0.2474,0.2483,0.2485,0.2486,0,0,0,0,0,0,0,0,0,0,0,0,0,0.247,0.2456,0.2475,0.2468,0.2467,0.2498,0.2498,0.2499,0.2477,0.2476,0.2474,0.2473,0.2483,0.2484,0.2486,0.2522,0,0,0.2491,0.2492,0,0,0,0,0,0,0,0,0.2469,0.247,0.2468,0.2468,0.2468,0.2483,0.2495,0.2506,0.2477,0.2473,0.2474,0.2472,0.2484,0.2485,0.2492,0.2522,0.2523,0.2491,0.2492,0.2493,0.2493,0,0,0,0,0,0,0,0.2468,0.2469,0.2484,0.2469,0.2468,0.2478,0.2478,0.2497,0.2485,0.2473,0.2472,0.2475,0.2483,0.2491,0.2492,0.2523,0.2491,0.2492,0.2493,0.2494,0.2639,0.2642,0,0,0,0,0,0,0.2465,0.2468,0.2483,0.2485,0.2465,0.2479,0.2479,0.2479,0.2485,0.2484,0.2476,0.2474,0.2488,0.249,0.2492,0.2574,0.2493,0.2494,0.2495,0.2636,0.264,0.2643,0,0,0,0,0,0,0.2464,0.2466,0.2482,0.2477,0.248,0.2481,0.2481,0.2481,0.2489,0.2487,0.2486,0.2485,0.2487,0.249,0.2519,0.2573,0.2495,0.2496,0.2633,0.2637,0.2641,0.2713,0,0,0,0,0,0,0.2463,0.2465,0.247,0.2477,0.248,0.2507,0.2482,0.2482,0.2493,0.2491,0.2495,0.2494,0.2487,0.2517,0.2521,0.2574,0.2498,0.2629,0.2635,0.264,0.2707,0.272,0.273,0,0,0,0,0,0.2463,0.2477,0.247,0.2472,0.2484,0.2508,0.2511,0.2507,0.2495,0.2508,0.2513,0.2494,0.2555,0.252,0.2524,0.2579,0.2626,0.2633,0.2639,0.2702,0.2717,0.273,0,0,0,0,0,0,0.2471,0.2477,0.2468,0.2483,0.2495,0.2504,0.2516,0.2515,0.253,0.2525,0.2519,0.252,0.258,0.2569,0.253,0.2641,0.2594,0.2601,0.264,0.2655,0.2666,0.2659,0.2499,0,0,0,0,0,0.2475,0.2485,0.2492,0.2504,0.251,0.2515,0.2525,0.2523,0.2535,0.2539,0.2546,0.2566,0.2613,0.262,0.2653,0.2696,0.2674,0.274,0.2751,0.2761,0.2761,0.2789,0.2802,0.2664,0.2664,0.2664,0,0,0.2478,0.2486,0.2489,0.2507,0.2513,0.2529,0.2517,0.2536,0.2559,0.254,0.2576,0.261,0.2638,0.2699,0.2723,0.2689,0.2786,0.2769,0.2776,0.2772,0.2797,0.281,0.2821,0.2669,0.2668,0.2667,0,0,0.2492,0.2499,0.2508,0.2526,0.2541,0.2548,0.2555,0.2572,0.2588,0.2625,0.2643,0.2702,0.2735,0.2784,0.281,0.2904,0.2858,0.292,0.2955,0.2983,0.2994,0.3003,0.2972,0.2978,0.2911,0.2911,0.2911,0,0.2494,0.2507,0.2518,0.2536,0.2552,0.2557,0.2574,0.2602,0.2629,0.2657,0.2641,0.2753,0.2783,0.2881,0.2923,0.2932,0.2908,0.2896,0.2995,0.3004,0.3012,0.2978,0.2983,0.2915,0.2915,0.2914,0.2914,0,0.2513,0.2528,0.254,0.2559,0.2581,0.2602,0.2633,0.2663,0.268,0.2708,0.2802,0.2852,0.2912,0.2955,0.2966,0.3064,0.3015,0.3015,0.295,0.3029,0.2989,0.2993,0.2921,0.292,0.2919,0.2917,0,0,0.2499,0.2542,0.2545,0.2563,0.2596,0.2619,0.2666,0.2717,0.2763,0.2806,0.2873,0.2983,0.3008,0.3042,0.3083,0.3116,0.3166,0.3087,0.3086,0.3038,0.3175,0.2973,0.2957,0.3172,0.3174,0.3175,0.3115,0,0.2504,0.254,0.2564,0.2605,0.2623,0.2658,0.2705,0.2759,0.2808,0.2879,0.2953,0.3037,0.3042,0.309,0.3128,0.3179,0.3184,0.3179,0.3122,0.3119,0.2916,0.2958,0.2859,0.2782,0.3119,0.3119,0.312,0,0.2503,0.2533,0.2564,0.2631,0.2644,0.2677,0.2757,0.2802,0.2901,0.2944,0.3022,0.3077,0.3174,0.3158,0.3221,0.321,0.3194,0.3204,0.3201,0.2988,0.2925,0.2765,0.2776,0.2748,0.3126,0.3125,0.3125,0,0.2477,0.2535,0.2561,0.2582,0.2653,0.269,0.2733,0.2821,0.2865,0.2992,0.3029,0.3138,0.3177,0.3212,0.3211,0.3228,0.323,0.3255,0.3043,0.3026,0.2917,0.2886,0.2878,0.3271,0.3272,0.3272,0.3272,0,0.247,0.2493,0.2557,0.2577,0.2629,0.2684,0.2753,0.2817,0.2902,0.2949,0.3057,0.3101,0.319,0.3197,0.3212,0.3103,0.3215,0.3041,0.3004,0.2934,0.2907,0.2855,0.2821,0.3269,0.327,0.327,0.3271,0,0.243,0.2464,0.2504,0.2587,0.2613,0.2651,0.2737,0.279,0.2868,0.2929,0.2965,0.3064,0.3056,0.3078,0.3113,0.3051,0.2908,0.2945,0.2815,0.2761,0.2517,0.2489,0.2224,0.2188,0.2719,0.2714,0.2709,0,0.2414,0.2425,0.25,0.2521,0.2559,0.2622,0.2663,0.2759,0.2803,0.2888,0.2909,0.2925,0.2904,0.2835,0.277,0.2691,0.2671,0.2522,0.2544,0.2469,0.2416,0.2302,0.2289,0.2437,0.2431,0.2426,0.2422,0,0.239,0.2408,0.2448,0.248,0.2526,0.2564,0.2629,0.2646,0.2733,0.275,0.2741,0.2729,0.2654,0.2523,0.2394,0.2358,0.2378,0.2404,0.2409,0.2237,0.2035,0.1995,0.2481,0.2375,0.238,0.2384,0.2386,0.2388,0.2371,0.2385,0.2421,0.2444,0.2472,0.2469,0.2455,0.2498,0.2487,0.2446,0.2523,0.2417,0.2364,0.2169,0.2111,0.1953,0.1969,0.192,0.1904,0.1806,0.1721,0.2038,0.1832,0.1833,0.1834,0.1835,0.1836,0,0.2339,0.2354,0.238,0.2384,0.2345,0.2388,0.2394,0.2331,0.2237,0.2224,0.2151,0.2018,0.1876,0.1832,0.1675,0.1547,0.1523,0.1488,0.1421,0.1454,0.1834,0.1779,0.1449,0.1449,0.1449,0.1449,0.1449,0.1449,0.2329,0.232,0.2322,0.2237,0.2218,0.2128,0.2084,0.1992,0.1945,0.176,0.1649,0.1626,0.1623,0.1449,0.1315,0.1283,0.1242,0.1029,0.1099,0.1499,0.1544,0.1587,0.1535,0.1159,0.1159,0.0717,0.0713,0.0711]},{"header":{"parameterUnit":"m.s-1","parameterCategory":2,"la1":30.2991,"la2":30.254,"lo1":-89.0895,"lo2":-89.0444,"dy":0.0017,"dx":0.0017,"nx":28,"ny":28,"refTime":"2024-11-27T09:00:00:Z","depth":"0","parameterNumber":3,"parameterNumberName":"V-component_of_CURRENTS"},"data":[0,0,0,0,0,0,0,0,0,0,0,0,0,0,0,0,0,0,0,0,0,0,0,0,0,0,0,0,0,0,0,0,0,0,0,0,0,0,0,0,0,0,0,0,0,0,0,0,0,0,0,0,0,0,0,0,0,0,0.0354,0.0355,0,0.0394,0.0394,0.0395,0.0396,0.0396,0.0395,0.0395,0.0411,0.0412,0.0413,0,0,0,0,0,0,0,0,0,0,0,0,0,0.0284,0.0285,0.0354,0.0355,0.0355,0.0394,0.0394,0.0395,0.0396,0.0396,0.0395,0.0395,0.0411,0.0412,0.0413,0,0,0,0,0,0,0,0,0,0,0,0,0,0.0317,0.0285,0.0354,0.0362,0.0363,0.0394,0.0394,0.0395,0.0396,0.0396,0.0395,0.0395,0.0411,0.0412,0.0413,0.043,0,0,0.0416,0.0417,0,0,0,0,0,0,0,0,0.0315,0.0319,0.036,0.0361,0.0363,0.0391,0.0376,0.0406,0.0396,0.0382,0.0395,0.0394,0.0404,0.0405,0.0412,0.0431,0.0432,0.0417,0.0417,0.0418,0.0418,0,0,0,0,0,0,0,0.0312,0.0317,0.0368,0.0361,0.0362,0.0365,0.0369,0.0381,0.0394,0.0383,0.0384,0.0391,0.0404,0.0411,0.0412,0.0432,0.0416,0.0417,0.0418,0.0419,0.047,0.0471,0,0,0,0,0,0,0.0311,0.0315,0.0367,0.037,0.0339,0.0367,0.0371,0.0381,0.0394,0.0396,0.0391,0.0391,0.0409,0.0411,0.0413,0.0455,0.0418,0.0419,0.0419,0.0469,0.047,0.0471,0,0,0,0,0,0,0.0309,0.0315,0.0366,0.0344,0.0351,0.0369,0.038,0.0382,0.0391,0.0401,0.0402,0.0398,0.0409,0.0411,0.0424,0.0455,0.0419,0.042,0.0469,0.047,0.0471,0.0526,0,0,0,0,0,0,0.0307,0.0315,0.0321,0.0344,0.0352,0.0391,0.0381,0.0383,0.0397,0.0397,0.0407,0.0408,0.0409,0.0423,0.0426,0.0456,0.0421,0.0468,0.0469,0.047,0.0524,0.0529,0.0534,0,0,0,0,0,0.0305,0.0324,0.0321,0.0327,0.036,0.0392,0.0397,0.0406,0.0398,0.041,0.0409,0.0408,0.0433,0.0424,0.0427,0.0459,0.0467,0.0469,0.047,0.0521,0.0528,0.0534,0,0,0,0,0,0,0.0298,0.0326,0.0324,0.035,0.0369,0.0393,0.0407,0.0409,0.0419,0.0416,0.0416,0.0417,0.0443,0.0437,0.0428,0.0475,0.045,0.0453,0.0488,0.0495,0.05,0.0544,0.0422,0,0,0,0,0,0.0298,0.0319,0.0342,0.0363,0.0373,0.0387,0.04,0.0407,0.042,0.0424,0.0432,0.0438,0.0453,0.0461,0.0471,0.0497,0.0497,0.0517,0.0523,0.0527,0.0564,0.058,0.059,0.0476,0.0476,0.0476,0,0,0.0301,0.032,0.0331,0.0362,0.0376,0.0407,0.0394,0.0419,0.0447,0.0425,0.046,0.0458,0.0462,0.0492,0.0503,0.0491,0.0553,0.0529,0.0533,0.0568,0.0583,0.0594,0.0604,0.0477,0.0477,0.0477,0,0,0.0328,0.0334,0.0362,0.0381,0.0408,0.0422,0.043,0.0455,0.0468,0.0494,0.0489,0.0513,0.0521,0.0549,0.0558,0.0599,0.0578,0.0584,0.0652,0.0666,0.0676,0.0685,0.0672,0.068,0.0588,0.0588,0.0588,0,0.0328,0.0369,0.0375,0.0408,0.0433,0.0431,0.047,0.0485,0.0512,0.0539,0.0511,0.0567,0.0562,0.0629,0.0636,0.0618,0.0602,0.0628,0.0675,0.0684,0.0692,0.0677,0.0685,0.0591,0.0591,0.059,0.059,0,0.0378,0.0409,0.0429,0.0471,0.0495,0.0529,0.0551,0.0579,0.0584,0.0605,0.0663,0.0663,0.0706,0.0697,0.0677,0.0743,0.0702,0.0677,0.0663,0.0708,0.0687,0.0694,0.0595,0.0594,0.0593,0.0592,0,0,0.0388,0.0452,0.046,0.0498,0.0533,0.0568,0.0613,0.0671,0.0726,0.0735,0.0814,0.083,0.0835,0.0847,0.0833,0.0844,0.0868,0.0785,0.0784,0.078,0.0873,0.0826,0.0829,0.0838,0.084,0.0842,0.0825,0,0.0428,0.0507,0.0527,0.0605,0.065,0.0669,0.0722,0.0769,0.0801,0.0871,0.0887,0.0944,0.0889,0.0916,0.0921,0.089,0.0894,0.0874,0.0825,0.0825,0.0785,0.0839,0.0867,0.0853,0.0831,0.0832,0.0833,0,0.0472,0.0525,0.0606,0.0696,0.0719,0.0763,0.0864,0.0911,0.099,0.1018,0.1074,0.1079,0.1125,0.1059,0.1048,0.1028,0.0967,0.0927,0.0925,0.088,0.0794,0.081,0.0866,0.0908,0.0844,0.0843,0.0842,0,0.0494,0.0584,0.0656,0.0683,0.0775,0.0827,0.0879,0.096,0.1029,0.1121,0.1176,0.1215,0.124,0.1195,0.11,0.1075,0.1061,0.1016,0.0921,0.0915,0.0935,0.0928,0.1043,0.1017,0.1017,0.1017,0.1018,0,0.0536,0.0596,0.0677,0.0721,0.0828,0.087,0.0989,0.1048,0.115,0.1247,0.1257,0.1332,0.1271,0.1246,0.1153,0.106,0.11,0.0963,0.0926,0.0949,0.0943,0.0975,0.0977,0.1017,0.1017,0.1017,0.1017,0,0.0554,0.06,0.0694,0.0801,0.0842,0.0919,0.1056,0.1147,0.122,0.1349,0.1384,0.1425,0.1387,0.1301,0.122,0.1124,0.1062,0.0991,0.1006,0.0972,0.0924,0.0926,0.0976,0.1041,0.091,0.0909,0.0908,0,0.0575,0.0623,0.0749,0.0814,0.0868,0.0983,0.1073,0.1178,0.1277,0.1404,0.1476,0.1478,0.1487,0.1347,0.1194,0.1045,0.1044,0.0961,0.0937,0.0961,0.0937,0.093,0.0983,0.0969,0.0969,0.0969,0.0969,0,0.0619,0.0657,0.0737,0.0866,0.0967,0.1086,0.1217,0.1307,0.1429,0.1517,0.161,0.1622,0.15,0.1381,0.1172,0.1059,0.1028,0.095,0.0997,0.1031,0.1014,0.1045,0.0916,0.0967,0.0967,0.0967,0.0968,0.0968,0.0649,0.0708,0.0807,0.0929,0.104,0.1168,0.127,0.1396,0.153,0.1659,0.1673,0.1693,0.1573,0.1299,0.1166,0.1003,0.1002,0.0963,0.097,0.0965,0.1032,0.0884,0.0874,0.0874,0.0874,0.0874,0.0873,0,0.0687,0.0756,0.0869,0.1007,0.1112,0.1173,0.1354,0.1446,0.1577,0.1688,0.1741,0.173,0.1556,0.139,0.1165,0.107,0.1062,0.1031,0.1075,0.1136,0.1032,0.1041,0.1041,0.1041,0.1041,0.1041,0.1041,0.1041,0.071,0.0805,0.086,0.1029,0.1126,0.1269,0.1364,0.1496,0.1612,0.1736,0.1793,0.1844,0.1822,0.1407,0.1228,0.1172,0.1229,0.1136,0.1194,0.1151,0.1147,0.1144,0.1157,0.1182,0.1182,0.1343,0.1344,0.1345]}],[{"header":{"parameterUnit":"m.s-1","parameterCategory":2,"la1":30.2991,"la2":30.254,"lo1":-89.0895,"lo2":-89.0444,"dy":0.0017,"dx":0.0017,"nx":28,"ny":28,"refTime":"2024-11-27T09:00:00:Z","depth":"2","parameterNumber":2,"parameterNumberName":"U-component_of_CURRENTS"},"data":[0,0,0,0,0,0,0,0,0,0,0,0,0,0,0,0,0,0,0,0,0,0,0,0,0,0,0,0,0,0,0,0,0,0,0,0,0,0,0,0,0,0,0,0,0,0,0,0,0,0,0,0,0,0,0,0,0,0,0.2131,0.2131,0,0.2125,0.2125,0.2125,0.2117,0.2117,0.2116,0.2116,0.2135,0.2136,0.2136,0,0,0,0,0,0,0,0,0,0,0,0,0,0.2128,0.2129,0.2131,0.2131,0.2131,0.2125,0.2125,0.2125,0.2117,0.2117,0.2116,0.2116,0.2135,0.2136,0.2136,0,0,0,0,0,0,0,0,0,0,0,0,0,0.2127,0.2129,0.2131,0.2126,0.2126,0.2125,0.2125,0.2125,0.2117,0.2117,0.2116,0.2116,0.2135,0.2136,0.2136,0.2146,0,0,0.2139,0.214,0,0,0,0,0,0,0,0,0.2127,0.2127,0.2127,0.2126,0.2126,0.2121,0.2131,0.2133,0.2117,0.212,0.2116,0.2116,0.2133,0.2134,0.2133,0.2147,0.2148,0.2139,0.214,0.214,0.2141,0,0,0,0,0,0,0,0.2127,0.2127,0.2129,0.2127,0.2126,0.2122,0.2121,0.2131,0.2128,0.212,0.2119,0.2119,0.2133,0.2132,0.2133,0.2148,0.2139,0.214,0.2141,0.2141,0.2228,0.2229,0,0,0,0,0,0,0.2128,0.2127,0.2129,0.2128,0.2126,0.2122,0.2122,0.2123,0.2127,0.2128,0.2119,0.2118,0.2131,0.2132,0.2134,0.2233,0.214,0.2141,0.2142,0.2226,0.2228,0.223,0,0,0,0,0,0,0.2128,0.2129,0.2129,0.2127,0.2127,0.2122,0.2124,0.2123,0.2142,0.2126,0.2127,0.2141,0.213,0.2133,0.2172,0.223,0.2142,0.2143,0.2224,0.2226,0.2229,0.2375,0,0,0,0,0,0,0.2128,0.2129,0.2133,0.2128,0.2127,0.2142,0.2124,0.2123,0.2141,0.214,0.2146,0.2146,0.213,0.2171,0.2173,0.223,0.2143,0.2222,0.2225,0.2228,0.2368,0.2382,0.2394,0,0,0,0,0,0.2128,0.2135,0.2133,0.2133,0.2132,0.2143,0.2143,0.2138,0.2142,0.2154,0.217,0.2147,0.2193,0.2174,0.2176,0.2234,0.222,0.2224,0.2228,0.2362,0.2379,0.2394,0,0,0,0,0,0,0.2139,0.2135,0.2132,0.2139,0.2146,0.2142,0.2154,0.2155,0.2176,0.2182,0.2174,0.2176,0.2224,0.2207,0.2186,0.2264,0.2201,0.2205,0.2302,0.2318,0.2331,0.2307,0.2144,0,0,0,0,0,0.2143,0.2151,0.2146,0.2158,0.2163,0.2166,0.2172,0.217,0.2184,0.2193,0.22,0.2212,0.2238,0.2262,0.226,0.2316,0.228,0.235,0.2364,0.2375,0.2355,0.2391,0.2407,0.2243,0.2243,0.2243,0,0,0.2151,0.2153,0.2156,0.2162,0.2169,0.2179,0.217,0.2188,0.2212,0.2193,0.2239,0.2252,0.2258,0.2313,0.2335,0.2314,0.24,0.238,0.2391,0.2363,0.2397,0.2413,0.2428,0.2245,0.2245,0.2244,0,0,0.2161,0.2176,0.2175,0.2194,0.2205,0.2205,0.2218,0.2227,0.2251,0.2292,0.2294,0.2348,0.237,0.2404,0.2422,0.2508,0.2457,0.2509,0.2579,0.2617,0.2631,0.2643,0.2605,0.2613,0.2533,0.2533,0.2533,0,0.2169,0.2177,0.2181,0.2195,0.2215,0.2222,0.2236,0.2264,0.2289,0.2314,0.2318,0.2391,0.2414,0.25,0.254,0.2542,0.252,0.2528,0.2636,0.2647,0.2657,0.2615,0.2622,0.2541,0.254,0.2539,0.2538,0,0.2177,0.2197,0.2212,0.2228,0.2242,0.2272,0.2296,0.2326,0.2356,0.2375,0.2458,0.2507,0.255,0.2588,0.2599,0.2693,0.2639,0.2641,0.2601,0.2683,0.2633,0.2637,0.2551,0.2549,0.2546,0.2544,0,0,0.2173,0.2206,0.2217,0.2236,0.2273,0.2284,0.2333,0.2371,0.2423,0.2467,0.2537,0.2628,0.2655,0.2676,0.272,0.2776,0.2849,0.275,0.2749,0.2718,0.2878,0.2696,0.2682,0.2882,0.2884,0.2886,0.2812,0,0.2187,0.2197,0.2229,0.2272,0.2275,0.2326,0.2371,0.2409,0.2468,0.2537,0.2609,0.2679,0.2694,0.2749,0.2812,0.2834,0.2867,0.2864,0.2795,0.2791,0.2627,0.2684,0.2503,0.2409,0.2815,0.2816,0.2816,0,0.2186,0.2189,0.2214,0.2277,0.2293,0.2343,0.2422,0.2464,0.2553,0.2605,0.2686,0.2725,0.2819,0.2829,0.2891,0.2888,0.2886,0.2894,0.2892,0.2666,0.2617,0.2394,0.24,0.2821,0.2821,0.282,0.282,0,0.2144,0.2197,0.2216,0.2245,0.2303,0.2363,0.2406,0.2485,0.2527,0.2652,0.2692,0.2792,0.2841,0.2878,0.2883,0.29,0.2912,0.2937,0.2755,0.274,0.2535,0.2498,0.2966,0.2966,0.2966,0.2966,0.2966,0,0.2149,0.2173,0.2216,0.2243,0.2281,0.2344,0.2436,0.2488,0.2586,0.2626,0.2731,0.277,0.286,0.287,0.2882,0.2797,0.2903,0.2745,0.2718,0.2576,0.2545,0.2862,0.2851,0.2963,0.2964,0.2965,0.2965,0,0.2117,0.214,0.2169,0.2246,0.2264,0.2298,0.2409,0.2485,0.2569,0.2629,0.2656,0.2742,0.2735,0.2769,0.2803,0.2756,0.2725,0.2667,0.2446,0.2393,0.2523,0.2521,0.2459,0.2452,0.2446,0.2441,0.2437,0,0.2102,0.2107,0.2153,0.216,0.222,0.2282,0.2335,0.2446,0.2505,0.2584,0.2593,0.2614,0.2588,0.2533,0.2476,0.2406,0.2541,0.218,0.2187,0.2496,0.2477,0.2483,0.2489,0.1976,0.1968,0.1962,0.1957,0,0.208,0.2109,0.2135,0.2121,0.2185,0.222,0.23,0.2318,0.2429,0.2447,0.2419,0.2397,0.2342,0.2171,0.2083,0.2033,0.2179,0.2046,0.2458,0.2118,0.2031,0.2015,0.2039,0.1903,0.1908,0.1912,0.1915,0.1917,0.2077,0.2077,0.2099,0.2086,0.2129,0.2135,0.2126,0.2192,0.2183,0.2143,0.2194,0.2078,0.2057,0.1797,0.1697,0.1613,0.178,0.1717,0.1741,0.1771,0.1714,0.162,0.14,0.1403,0.1405,0.1407,0.1408,0,0.203,0.2037,0.2045,0.202,0.2023,0.2071,0.2074,0.2021,0.194,0.1923,0.1845,0.1608,0.1456,0.1437,0.1227,0.1174,0.1226,0.1112,0.1206,0.1259,0.1306,0.1233,0.0788,0.0786,0.0784,0.0783,0,0,0.2015,0.199,0.1978,0.191,0.1904,0.1858,0.1829,0.1716,0.1647,0.1486,0.1382,0.1419,0.1415,0.1121,0.1045,0.0892,0.1082,0.0836,0.1334,0.1502,0.1548,0.1645,0.1587,0,0,0,0,0]},{"header":{"parameterUnit":"m.s-1","parameterCategory":2,"la1":30.2991,"la2":30.254,"lo1":-89.0895,"lo2":-89.0444,"dy":0.0017,"dx":0.0017,"nx":28,"ny":28,"refTime":"2024-11-27T09:00:00:Z","depth":"2","parameterNumber":3,"parameterNumberName":"V-component_of_CURRENTS"},"data":[0,0,0,0,0,0,0,0,0,0,0,0,0,0,0,0,0,0,0,0,0,0,0,0,0,0,0,0,0,0,0,0,0,0,0,0,0,0,0,0,0,0,0,0,0,0,0,0,0,0,0,0,0,0,0,0,0,0,0.0242,0.0242,0,0.0271,0.0272,0.0272,0.0278,0.0278,0.0278,0.0278,0.0294,0.0295,0.0296,0,0,0,0,0,0,0,0,0,0,0,0,0,0.018,0.0181,0.0242,0.0242,0.0243,0.0271,0.0272,0.0272,0.0278,0.0278,0.0278,0.0278,0.0294,0.0295,0.0296,0,0,0,0,0,0,0,0,0,0,0,0,0,0.0207,0.0181,0.0242,0.025,0.0251,0.0271,0.0272,0.0272,0.0278,0.0278,0.0278,0.0278,0.0294,0.0295,0.0296,0.0304,0,0,0.0298,0.0299,0,0,0,0,0,0,0,0,0.0205,0.0209,0.0249,0.025,0.0251,0.0272,0.0256,0.0282,0.0279,0.0267,0.0278,0.0278,0.0286,0.0288,0.0293,0.0305,0.0306,0.0298,0.0299,0.0299,0.0299,0,0,0,0,0,0,0,0.0204,0.0208,0.0253,0.0249,0.0251,0.0249,0.0252,0.0261,0.0276,0.0268,0.0269,0.0274,0.0287,0.0292,0.0293,0.0306,0.0298,0.0299,0.0299,0.03,0.0334,0.0334,0,0,0,0,0,0,0.0203,0.0206,0.0252,0.0254,0.0228,0.025,0.0254,0.0265,0.0277,0.0279,0.0274,0.0274,0.0291,0.0292,0.0294,0.0334,0.0299,0.03,0.03,0.0333,0.0334,0.0334,0,0,0,0,0,0,0.0202,0.0207,0.025,0.0231,0.0236,0.0252,0.0263,0.0265,0.0276,0.0281,0.0283,0.0283,0.029,0.0292,0.0308,0.0334,0.03,0.0301,0.0333,0.0333,0.0334,0.0396,0,0,0,0,0,0,0.02,0.0206,0.0212,0.0231,0.0238,0.0271,0.0263,0.0266,0.0279,0.028,0.029,0.0291,0.029,0.0307,0.0309,0.0334,0.0302,0.0332,0.0333,0.0334,0.0393,0.0399,0.0403,0,0,0,0,0,0.0198,0.0213,0.0212,0.0218,0.0246,0.0272,0.0276,0.0284,0.028,0.0292,0.0295,0.0291,0.0313,0.0308,0.031,0.0336,0.0332,0.0333,0.0334,0.0391,0.0398,0.0403,0,0,0,0,0,0,0.019,0.0215,0.0215,0.0237,0.0255,0.0274,0.0286,0.0289,0.0301,0.03,0.03,0.0302,0.0321,0.0316,0.0311,0.0345,0.032,0.0322,0.0363,0.0369,0.0374,0.0409,0.0302,0,0,0,0,0,0.019,0.0209,0.0229,0.0247,0.0257,0.027,0.0281,0.0288,0.0301,0.0306,0.0314,0.0318,0.0326,0.0338,0.0339,0.0365,0.036,0.0379,0.0384,0.0389,0.0417,0.0432,0.0441,0.0337,0.0337,0.0337,0,0,0.0192,0.0209,0.0219,0.0247,0.0261,0.0287,0.0277,0.0299,0.0325,0.0306,0.0341,0.0333,0.0332,0.0358,0.0367,0.0361,0.0408,0.039,0.0394,0.042,0.0434,0.0444,0.0453,0.0338,0.0338,0.0338,0,0,0.0213,0.0222,0.0245,0.0264,0.0289,0.0301,0.0309,0.0332,0.0345,0.0372,0.0362,0.0382,0.0388,0.0409,0.0415,0.0449,0.0426,0.0431,0.05,0.0513,0.0523,0.0531,0.0511,0.0517,0.0444,0.0444,0.0444,0,0.0213,0.025,0.0255,0.0285,0.031,0.031,0.0345,0.036,0.0386,0.0407,0.0389,0.0428,0.0423,0.0476,0.0484,0.0467,0.0449,0.048,0.0522,0.053,0.0538,0.0516,0.0522,0.0447,0.0447,0.0447,0.0446,0,0.0253,0.0283,0.0301,0.0341,0.0363,0.0396,0.0417,0.0441,0.045,0.0467,0.0513,0.0515,0.0549,0.0539,0.0524,0.0578,0.0537,0.0519,0.0513,0.0553,0.0525,0.0531,0.0452,0.0451,0.045,0.0449,0,0,0.0261,0.0319,0.0328,0.0363,0.04,0.043,0.047,0.0519,0.0569,0.0577,0.0645,0.0655,0.0661,0.067,0.0659,0.0673,0.0695,0.0622,0.0621,0.0613,0.0695,0.0655,0.0656,0.0676,0.0678,0.068,0.0644,0,0.0296,0.0361,0.0385,0.0457,0.0493,0.0518,0.0566,0.0604,0.0635,0.0696,0.0707,0.0753,0.071,0.0735,0.0746,0.0707,0.0715,0.0705,0.065,0.0648,0.0618,0.0665,0.0634,0.06,0.0649,0.065,0.0651,0,0.0334,0.0374,0.0446,0.0531,0.0552,0.0602,0.0693,0.0735,0.08,0.0827,0.0875,0.0873,0.0909,0.0861,0.0844,0.0831,0.0779,0.0741,0.0738,0.0695,0.0621,0.0573,0.0607,0.0659,0.0658,0.0658,0.0657,0,0.0345,0.0426,0.049,0.0517,0.0602,0.0657,0.0709,0.0779,0.0841,0.0918,0.0967,0.0993,0.1018,0.0971,0.0886,0.0865,0.0845,0.0806,0.0724,0.0718,0.0682,0.0671,0.0807,0.0807,0.0808,0.0808,0.0808,0,0.0383,0.0438,0.0509,0.0551,0.0643,0.0692,0.081,0.0857,0.0957,0.1043,0.1044,0.1104,0.1046,0.1018,0.0928,0.0843,0.0879,0.0757,0.0724,0.0697,0.0688,0.0736,0.0728,0.0806,0.0807,0.0807,0.0807,0,0.04,0.0439,0.0522,0.0621,0.0653,0.0724,0.0865,0.0961,0.1029,0.1144,0.117,0.1194,0.1148,0.1068,0.0986,0.0902,0.0818,0.0775,0.073,0.0695,0.0664,0.066,0.0691,0.0689,0.0688,0.0687,0.0687,0,0.0418,0.0458,0.0564,0.0618,0.0677,0.0786,0.0877,0.0983,0.1084,0.1191,0.125,0.1241,0.1232,0.1091,0.095,0.0804,0.0796,0.0679,0.0653,0.0697,0.0661,0.0658,0.0655,0.0609,0.0608,0.0607,0.0606,0,0.0456,0.0494,0.0565,0.0665,0.0768,0.088,0.1011,0.1096,0.1225,0.1296,0.1357,0.1347,0.1225,0.1065,0.088,0.077,0.0701,0.0652,0.0734,0.0645,0.0618,0.0583,0.0584,0.0596,0.0597,0.0598,0.0598,0.0599,0.0489,0.0539,0.0628,0.0726,0.0837,0.0966,0.1063,0.1193,0.1314,0.1413,0.1401,0.1363,0.1215,0.0948,0.0782,0.0614,0.0642,0.056,0.0564,0.057,0.0569,0.0542,0.0503,0.0504,0.0504,0.0504,0.0505,0,0.0518,0.0581,0.068,0.0801,0.0921,0.0979,0.115,0.1235,0.1355,0.1417,0.1434,0.123,0.1067,0.0896,0.0642,0.0501,0.0486,0.0435,0.0452,0.0462,0.0471,0.0466,0.0372,0.0372,0.0371,0.0371,0,0,0.0539,0.0624,0.0671,0.0842,0.094,0.1097,0.1193,0.1288,0.1357,0.1375,0.134,0.1308,0.1109,0.0892,0.0692,0.054,0.0535,0.0496,0.0614,0.0669,0.068,0.0551,0.0556,0,0,0,0,0]}],[{"header":{"parameterUnit":"m.s-1","parameterCategory":2,"la1":30.2991,"la2":30.254,"lo1":-89.0895,"lo2":-89.0444,"dy":0.0017,"dx":0.0017,"nx":28,"ny":28,"refTime":"2024-11-27T09:00:00:Z","depth":"4","parameterNumber":2,"parameterNumberName":"U-component_of_CURRENTS"},"data":[0,0,0,0,0,0,0,0,0,0,0,0,0,0,0,0,0,0,0,0,0,0,0,0,0,0,0,0,0,0,0,0,0,0,0,0,0,0,0,0,0,0,0,0,0,0,0,0,0,0,0,0,0,0,0,0,0,0,0.1089,0.1089,0,0.1083,0.1083,0.1083,0.1091,0.1091,0.1092,0.1092,0.1123,0.1124,0.1124,0,0,0,0,0,0,0,0,0,0,0,0,0,0.1114,0.1114,0.1089,0.1089,0.1089,0.1083,0.1083,0.1083,0.1091,0.1091,0.1092,0.1092,0.1123,0.1124,0.1124,0,0,0,0,0,0,0,0,0,0,0,0,0,0.1104,0.1113,0.1089,0.1093,0.1094,0.1083,0.1083,0.1083,0.1091,0.1091,0.1092,0.1093,0.1123,0.1124,0.1124,0.1116,0,0,0.1126,0.1127,0,0,0,0,0,0,0,0,0.1105,0.1103,0.1093,0.1093,0.1093,0.109,0.1103,0.1096,0.1091,0.109,0.1092,0.1093,0.1116,0.1117,0.1112,0.1117,0.1119,0.1126,0.1127,0.1127,0.1127,0,0,0,0,0,0,0,0.1105,0.1103,0.1085,0.1093,0.1093,0.1098,0.1097,0.1102,0.1099,0.1091,0.1092,0.1093,0.1116,0.1111,0.1113,0.1119,0.1126,0.1127,0.1127,0.1128,0.1204,0.1206,0,0,0,0,0,0,0.1107,0.1104,0.1085,0.1085,0.1102,0.1097,0.1096,0.1089,0.1099,0.1101,0.1092,0.1093,0.111,0.1112,0.1114,0.1148,0.1127,0.1128,0.1128,0.1203,0.1205,0.1207,0,0,0,0,0,0,0.1108,0.1105,0.1086,0.1096,0.1094,0.1096,0.1088,0.1089,0.111,0.11,0.1102,0.1116,0.1111,0.1113,0.1144,0.1147,0.1128,0.1129,0.1201,0.1203,0.1206,0.1187,0,0,0,0,0,0,0.1108,0.1105,0.1112,0.1096,0.1094,0.1095,0.1088,0.1088,0.1108,0.111,0.1121,0.1122,0.1111,0.1143,0.1144,0.1148,0.1129,0.1199,0.1202,0.1205,0.1185,0.1188,0.1191,0,0,0,0,0,0.1109,0.1104,0.1112,0.1111,0.1098,0.1096,0.1096,0.1099,0.1109,0.112,0.1133,0.1123,0.1164,0.1145,0.1146,0.115,0.1197,0.1201,0.1205,0.1184,0.1188,0.1191,0,0,0,0,0,0,0.1117,0.1104,0.1113,0.1105,0.1113,0.1099,0.1108,0.1115,0.1133,0.1144,0.1138,0.1141,0.117,0.1175,0.1154,0.1187,0.1182,0.1186,0.1166,0.1169,0.1172,0.1229,0.113,0,0,0,0,0,0.1123,0.1121,0.1115,0.1117,0.1121,0.1124,0.1129,0.1134,0.1141,0.115,0.1153,0.1169,0.1182,0.1189,0.1201,0.1215,0.1236,0.1225,0.1228,0.123,0.1282,0.133,0.1342,0.1219,0.1219,0.1219,0,0,0.1131,0.1122,0.1125,0.112,0.1126,0.1128,0.1129,0.1143,0.115,0.1151,0.1167,0.1181,0.1193,0.1206,0.122,0.1211,0.1262,0.1235,0.1235,0.1288,0.1336,0.1348,0.1358,0.1221,0.1221,0.122,0,0,0.1131,0.1137,0.1134,0.1136,0.1147,0.1151,0.1164,0.1165,0.1174,0.1196,0.1197,0.1229,0.1237,0.1245,0.1251,0.1287,0.128,0.1282,0.1331,0.1375,0.1386,0.1396,0.1366,0.1374,0.1276,0.1276,0.1276,0,0.1146,0.1129,0.1137,0.1131,0.1134,0.1165,0.1166,0.1177,0.119,0.1211,0.1209,0.1263,0.1262,0.1294,0.1308,0.1292,0.1301,0.1302,0.1377,0.1388,0.1399,0.1367,0.1376,0.1276,0.1276,0.1276,0.1276,0,0.1129,0.1129,0.1129,0.1132,0.1143,0.115,0.1166,0.1192,0.1218,0.1237,0.1291,0.13,0.1344,0.1331,0.1332,0.1398,0.137,0.1373,0.1362,0.141,0.1373,0.1382,0.1275,0.1275,0.1275,0.1275,0,0,0.1125,0.1118,0.1121,0.1123,0.1141,0.1148,0.1177,0.1214,0.1255,0.1287,0.1337,0.137,0.1411,0.1427,0.1422,0.1464,0.1504,0.1462,0.1464,0.142,0.1561,0.1416,0.1412,0.1521,0.1525,0.1527,0.1477,0,0.1113,0.1095,0.1099,0.1109,0.1105,0.1143,0.1177,0.1225,0.1266,0.1324,0.1374,0.1432,0.1431,0.1463,0.1507,0.1519,0.1543,0.1516,0.1536,0.1536,0.1394,0.1424,0.1538,0.1484,0.1487,0.1488,0.1489,0,0.1091,0.108,0.1076,0.1102,0.111,0.1137,0.1207,0.1235,0.1332,0.1376,0.1456,0.1501,0.1574,0.1574,0.1632,0.1617,0.1615,0.1614,0.1612,0.1513,0.1414,0.1449,0.1506,0.1505,0.1504,0.1503,0.1502,0,0.1066,0.1068,0.1067,0.1068,0.1107,0.1139,0.1181,0.1268,0.1312,0.1427,0.1479,0.1572,0.1619,0.1668,0.1676,0.167,0.1725,0.1695,0.1554,0.1539,0.1689,0.1681,0.1766,0.1766,0.1766,0.1767,0.1767,0,0.1031,0.1036,0.1067,0.1058,0.1101,0.1139,0.1198,0.1266,0.1369,0.1427,0.1516,0.1561,0.1664,0.1695,0.17,0.1642,0.1736,0.1586,0.1542,0.167,0.166,0.169,0.1682,0.1765,0.1765,0.1765,0.1766,0,0.0997,0.1014,0.1015,0.1057,0.1085,0.1119,0.1203,0.1242,0.1354,0.1427,0.1478,0.1582,0.1606,0.1651,0.1702,0.1638,0.162,0.158,0.1681,0.1639,0.1386,0.1378,0.1401,0.1396,0.1392,0.1388,0.1385,0,0.0968,0.0963,0.1002,0.1014,0.1038,0.109,0.1127,0.1238,0.1269,0.1407,0.1429,0.1514,0.1555,0.149,0.155,0.152,0.1513,0.1472,0.148,0.1407,0.1361,0.136,0.1357,0.1378,0.1377,0.1376,0.1375,0,0.0907,0.0937,0.0936,0.0953,0.0987,0.1007,0.1062,0.1094,0.1209,0.132,0.1363,0.1387,0.139,0.1405,0.1398,0.1382,0.1487,0.1428,0.1436,0.1443,0.138,0.1338,0.1341,0.1361,0.1363,0.1364,0.1365,0,0.0877,0.0861,0.0863,0.0878,0.091,0.091,0.0948,0.0981,0.1044,0.1214,0.1216,0.129,0.1384,0.1329,0.1321,0.1296,0.1267,0.1222,0.124,0.1257,0.1234,0.1133,0.1019,0,0,0,0,0,0.0839,0.0804,0.0785,0.0781,0.0803,0.0833,0.0894,0.0935,0.1056,0.106,0.1149,0.1156,0.1158,0.1186,0.1125,0.1212,0.1249,0.1131,0.1203,0.128,0.1297,0.1283,0,0,0,0,0,0,0.0809,0.0793,0.0751,0.0694,0.069,0.0701,0.0748,0.0829,0.083,0.0971,0.0976,0.1077,0.1087,0.1195,0.1109,0.1112,0.1125,0.1183,0.1179,0.1271,0.1286,0.1299,0.1291,0,0,0,0,0]},{"header":{"parameterUnit":"m.s-1","parameterCategory":2,"la1":30.2991,"la2":30.254,"lo1":-89.0895,"lo2":-89.0444,"dy":0.0017,"dx":0.0017,"nx":28,"ny":28,"refTime":"2024-11-27T09:00:00:Z","depth":"4","parameterNumber":3,"parameterNumberName":"V-component_of_CURRENTS"},"data":[0,0,0,0,0,0,0,0,0,0,0,0,0,0,0,0,0,0,0,0,0,0,0,0,0,0,0,0,0,0,0,0,0,0,0,0,0,0,0,0,0,0,0,0,0,0,0,0,0,0,0,0,0,0,0,0,0,0,0.0151,0.0151,0,0.0181,0.0181,0.0182,0.0192,0.0192,0.0192,0.0192,0.0206,0.0206,0.0207,0,0,0,0,0,0,0,0,0,0,0,0,0,0.0107,0.0107,0.0151,0.0151,0.0152,0.0181,0.0181,0.0182,0.0192,0.0192,0.0192,0.0192,0.0206,0.0206,0.0207,0,0,0,0,0,0,0,0,0,0,0,0,0,0.0131,0.0108,0.0151,0.016,0.0161,0.0181,0.0181,0.0182,0.0192,0.0192,0.0192,0.0191,0.0205,0.0206,0.0207,0.0217,0,0,0.021,0.021,0,0,0,0,0,0,0,0,0.0129,0.0132,0.0158,0.0159,0.016,0.0182,0.0171,0.0193,0.0192,0.0181,0.0192,0.0191,0.0196,0.0198,0.0205,0.0218,0.0219,0.021,0.021,0.0211,0.0211,0,0,0,0,0,0,0,0.0128,0.0131,0.0164,0.0158,0.016,0.0163,0.0167,0.0175,0.019,0.0182,0.0183,0.0185,0.0197,0.0204,0.0206,0.0219,0.021,0.021,0.0211,0.0211,0.025,0.0251,0,0,0,0,0,0,0.0123,0.013,0.0163,0.0164,0.0143,0.0164,0.0168,0.0176,0.019,0.0192,0.0185,0.0185,0.0203,0.0205,0.0206,0.023,0.0211,0.0211,0.0212,0.025,0.025,0.0251,0,0,0,0,0,0,0.0122,0.0126,0.0161,0.0147,0.0151,0.0165,0.0174,0.0177,0.0187,0.0193,0.0194,0.0193,0.0203,0.0205,0.022,0.023,0.0212,0.0212,0.0249,0.025,0.0251,0.0271,0,0,0,0,0,0,0.0121,0.0125,0.013,0.0147,0.0152,0.0177,0.0174,0.0177,0.0188,0.0189,0.02,0.0201,0.0203,0.0218,0.022,0.0231,0.0213,0.0248,0.0249,0.025,0.027,0.0273,0.0275,0,0,0,0,0,0.0119,0.0127,0.0131,0.0134,0.0158,0.0178,0.0181,0.019,0.0189,0.0198,0.0205,0.0201,0.0226,0.022,0.0222,0.0233,0.0248,0.0249,0.025,0.0269,0.0272,0.0275,0,0,0,0,0,0,0.011,0.013,0.0133,0.0147,0.0163,0.0179,0.0187,0.0193,0.0206,0.0206,0.0209,0.0211,0.0227,0.0228,0.0221,0.0247,0.0236,0.0237,0.0249,0.0252,0.0255,0.0255,0.0214,0,0,0,0,0,0.011,0.0123,0.014,0.0152,0.0159,0.0174,0.0182,0.019,0.0203,0.0209,0.0217,0.0225,0.0234,0.0241,0.0249,0.0266,0.0252,0.0274,0.0276,0.0278,0.028,0.0271,0.0273,0.0255,0.0255,0.0255,0,0,0.0109,0.0122,0.0129,0.0151,0.0163,0.0183,0.0179,0.0195,0.0212,0.0208,0.0231,0.0234,0.024,0.0258,0.0266,0.0261,0.0275,0.028,0.0282,0.0282,0.0273,0.0274,0.0276,0.0256,0.0256,0.0255,0,0,0.0117,0.0126,0.0141,0.0156,0.0175,0.0188,0.0194,0.0214,0.0222,0.0245,0.0244,0.0252,0.0273,0.0277,0.0282,0.0304,0.0287,0.0308,0.0325,0.0316,0.0317,0.0318,0.0293,0.0292,0.0311,0.0311,0.0311,0,0.0115,0.0139,0.0148,0.0167,0.0183,0.0192,0.0216,0.0227,0.025,0.0259,0.0255,0.0283,0.0282,0.0302,0.0308,0.0309,0.0297,0.0312,0.0319,0.0319,0.032,0.0294,0.0292,0.0313,0.0312,0.0312,0.0312,0,0.0135,0.0156,0.0166,0.0196,0.0214,0.0235,0.0253,0.0272,0.0282,0.0291,0.0312,0.0313,0.033,0.0329,0.0326,0.0335,0.0322,0.032,0.0309,0.0323,0.0295,0.0292,0.0314,0.0314,0.0313,0.0313,0,0,0.013,0.0172,0.0177,0.0201,0.0233,0.0254,0.0282,0.0312,0.0329,0.0342,0.0365,0.0371,0.0368,0.0372,0.0368,0.0357,0.0341,0.0342,0.0341,0.0314,0.0311,0.0302,0.0298,0.0343,0.0343,0.0343,0.0286,0,0.0146,0.0189,0.0207,0.0253,0.028,0.0301,0.0333,0.0358,0.0366,0.0388,0.0386,0.0406,0.0386,0.0398,0.0383,0.0356,0.0338,0.0356,0.0305,0.0303,0.029,0.0296,0.0343,0.0285,0.0284,0.0284,0.0283,0,0.0161,0.0192,0.0238,0.0296,0.0309,0.034,0.0388,0.0415,0.0437,0.0445,0.0454,0.0451,0.0447,0.0428,0.0381,0.0395,0.0356,0.0326,0.0323,0.0306,0.029,0.027,0.0279,0.0279,0.0279,0.028,0.028,0,0.0161,0.0216,0.0257,0.0275,0.0336,0.0366,0.0403,0.0434,0.0467,0.0481,0.0497,0.0487,0.0493,0.0446,0.0388,0.0387,0.0326,0.0316,0.0266,0.0264,0.028,0.0279,0.028,0.028,0.028,0.028,0.028,0,0.0173,0.0207,0.0263,0.0286,0.0347,0.0383,0.0437,0.0466,0.0512,0.0548,0.0529,0.0543,0.0499,0.0463,0.0399,0.0325,0.0334,0.0267,0.0253,0.0288,0.029,0.0277,0.0277,0.0278,0.0278,0.0279,0.0279,0,0.0169,0.0203,0.0254,0.0322,0.0348,0.0393,0.048,0.0518,0.0548,0.0592,0.0608,0.0597,0.0541,0.0478,0.04,0.0344,0.0273,0.0244,0.0279,0.0268,0.0209,0.0211,0.0177,0.0177,0.0176,0.0175,0.0175,0,0.0172,0.0197,0.0273,0.0313,0.0347,0.0417,0.0472,0.0536,0.0575,0.0617,0.0641,0.0614,0.0586,0.0461,0.0389,0.027,0.0253,0.0211,0.0214,0.0211,0.02,0.0203,0.0206,0.0174,0.0174,0.0174,0.0174,0,0.0179,0.0203,0.0247,0.0325,0.0388,0.0455,0.0531,0.0571,0.0638,0.0661,0.067,0.062,0.0553,0.046,0.0375,0.0287,0.0237,0.0204,0.0205,0.0207,0.0206,0.0197,0.0201,0.0171,0.0172,0.0172,0.0172,0,0.0185,0.0211,0.0269,0.034,0.0415,0.0482,0.0521,0.058,0.0633,0.0684,0.0681,0.0615,0.0593,0.0468,0.0385,0.0305,0.0277,0.0245,0.0243,0.0244,0.0282,0.0293,0.0273,0,0,0,0,0,0.0195,0.0226,0.0285,0.0362,0.0434,0.0482,0.0561,0.0596,0.0654,0.0666,0.0684,0.0622,0.0512,0.0462,0.0378,0.0357,0.0253,0.0254,0.0212,0.016,0.0162,0.0196,0,0,0,0,0,0,0.0204,0.0253,0.0279,0.0368,0.0424,0.0505,0.0559,0.0597,0.0606,0.0646,0.0586,0.0586,0.0473,0.0555,0.037,0.0347,0.0306,0.0211,0.0209,0.0158,0.016,0.0162,0.0198,0,0,0,0,0]}]]